Hourly Data Report for October 12, 2016

All times are specified in Local Standard Time (LST). Add 1 hour to adjust for Daylight Saving Time where and when it is observed.

CHARLOTTETOWN A
PRINCE EDWARD ISLAND

46°17'21.000" N
63°07'09.000" W
48.50 m
8300301
71706
YYG

Download Data

Hourly Data (October 2016)
Hourly Data Report for October 12, 2016
Temp Definition
°C
Dew Point Temp Definition
°C
Rel Hum Definition
%
Wind Dir Definition
10's deg

Wind Spd Definition
km/h
Visibility Definition
km
Stn Press Definition
kPa
Hmdx Definition


Wind Chill Definition


Weather Definition


TIME
00:00 Legend Double Dagger 7.7 4.7 81 20 14 24.1 102.32     LegendNANA
01:00 Legend Double Dagger 8.5 6.1 85 20 12 24.1 102.32     LegendNANA
02:00 Legend Double Dagger 8.4 6.7 89 21 13 24.1 102.30     Clear
03:00 Legend Double Dagger 8.4 6.9 90 22 9 24.1 102.28     LegendNANA
04:00 Legend Double Dagger 8.2 6.8 91 21 9 24.1 102.28     LegendNANA
05:00 Legend Double Dagger 8.3 7.1 92 21 11 24.1 102.30     Clear
06:00 Legend Double Dagger 8.0 7.1 94 21 10 24.1 102.31     LegendNANA
07:00 Legend Double Dagger 7.7 6.8 94 19 11 24.1 102.33     LegendNANA
08:00 Legend Double Dagger 10.8 9.4 91 20 12 24.1 102.37     Mainly Clear
09:00 Legend Double Dagger 12.6 9.5 81 19 16 24.1 102.39     LegendNANA
10:00 Legend Double Dagger 13.7 9.0 73 20 18 24.1 102.38     LegendNANA
11:00 Legend Double Dagger 14.5 8.3 66 21 18 24.1 102.34     Mostly Cloudy
12:00 Legend Double Dagger 15.3 8.4 63 19 17 24.1 102.29     LegendNANA
13:00 Legend Double Dagger 15.7 7.8 59 20 21 24.1 102.26     LegendNANA
14:00 Legend Double Dagger 15.9 7.0 55 20 16 24.1 102.24     Cloudy
15:00 Legend Double Dagger 15.5 7.8 60 18 18 24.1 102.19     LegendNANA
16:00 Legend Double Dagger 15.4 7.8 60 20 20 24.1 102.18     LegendNANA
17:00 Legend Double Dagger 14.6 7.0 60 20 17 24.1 102.16     Mostly Cloudy
18:00 Legend Double Dagger 12.9 6.8 66 19 14 24.1 102.14     LegendNANA
19:00 Legend Double Dagger 11.7 9.1 84 18 14 24.1 102.13     LegendNANA
20:00 Legend Double Dagger 12.5 8.8 78 19 17 24.1 102.10     Mostly Cloudy
21:00 Legend Double Dagger 12.4 9.4 82 19 16 24.1 102.09     LegendNANA
22:00 Legend Double Dagger 11.6 9.4 86 19 17 24.1 102.06     LegendNANA
23:00 Legend Double Dagger 11.6 9.5 87 19 16 24.1 102.05     Mostly Cloudy

Notes on Data Quality.

Legend

  • E = Estimated
  • M = Missing
  • NA = Not Available
  • ‡ = Partner data that is not subject to review by the National Climate Archives
Date modified: